Location: Nitra
(0.0000°N, 18.0833°E)
Time: 21:26:42
(UTC+02:00)

A-11 Canister half - Pass Details

Date: 07 April 2023
Orbit: 1526 x 1682 km, 47.3° (Epoch: 08 June)

Event Time Altitude Azimuth Distance (km) Brightness Sun altitude
Rises 22:27:11 0° 316° (NW) 4,778 12.0 -53.8°
Reaches altitude 10° 22:30:18 10° 315° (NW) 3,774 11.4 -54.5°
Enters shadow 22:32:52 21° 313° (NW) 2,975 10.7 -55.2°
Maximum altitude 22:39:48 75° 231° (SW) 1,593 - -56.8°
Drops below altitude 10° 22:49:07 10° 146° (SE) 3,696 - -59.1°
Sets 22:52:09 0° 144° (SE) 4,675 - -59.8°
